Погода в Нинбо

Китай     29°52′31″N   121°31′47″E
темп.,
°C
ветер,
м/с
пор.,
м/с
влажн.,
%
обл.,
%
осадки,
мм/ч
давл.,
гПа
погр.,
м
12 мая, ср
ср1223:00+21юз2398100 0.8 1008120
02:00+21з129885 2.9 100652
05:00+20сз119852 0.0 100760
08:00+22ссз2394100 0.1 1009329
11:00+24с338387 0.1 1008701
14:00+25ссв337777 0.4 1007648
17:00+21св348679 0.0 1008396
20:00+19всв2391100 0.0 1009300
13 мая, чт
чт1323:00+19в1291100 0.0 1010213
02:00+19в1292100 0.2 1008193
05:00+19всв1297100 2.0 1009151
08:00+20вюв1294100 2.3 1009269
11:00+23в2287100 0.1 1009511
14:00+24всв3282100 0.1 1007538
17:00+22всв2387100 0.1 1007294
20:00+21вюв1398100 5.0 1008165
14 мая, пт
пт1423:00+21в2299100 10.6 1008124
02:00+21юв2399100 10.7 1007179
05:00+20юв1299100 0.0 100792
08:00+22ю2394100 0.0 1009261
11:00+25ю2284100 0.0 1008397
14:00+25ююв1287100 0.3 1007251
17:00+24ююв1295100 0.6 100792
20:00+22ююв249795 0.6 1007120
15 мая, сб
сб1523:00+22ю2696100 0.0 1007175
02:00+21ю239899 0.0 1005107
05:00+21ю2299100 0.7 100673
08:00+24зюз1193100 3.1 1007217
11:00+23ссв1296100 3.5 1008149
14:00+25юв1390100 3.5 1004239
17:00+29ююв25795 0.0 1003441
20:00+25ююв249343 0.0 1003105
16 мая, вс
вс1623:00+23ю249583 0.0 1004117
02:00+22ю2595100 0.0 1002125
05:00+22ю1394100 0.0 100382
08:00+26ю2380100 0.0 1004266
11:00+32ю236398 0.0 1003531
14:00+35ю165077 0.0 10021671
17:00+32з2764100 0.0 1002377
20:00+25ссз71190100 0.1 1006542